GW0378 Weather Reports


time (UTC)temp
C
wind
direction
speed
KPH
gust
KPH
rain 1hr
cm
rain 24hr
cm
rain mn
cm
humidity
%
barometer
mb
20260510001918 21 323 3.2 8.0 0.00 0.00 0.00 31 1018.2
20260510001416 21 285 6.4 12.9 0.00 0.00 0.00 32 1018.5
20260510000913 21 297 0.0 4.8 0.00 0.00 0.00 29 1018.2
20260510000411 21 257 6.4 6.4 0.00 0.00 0.00 30 1018.3
20260509235905 21 328 4.8 8.0 0.00 0.00 0.00 29 1018.5
20260509235403 21 0 3.2 12.9 0.00 0.00 0.00 30 1018.2
20260509234858 21 10 4.8 6.4 0.00 0.00 0.00 31 1018.1
20260509234356 21 283 0.0 14.5 0.00 0.00 0.00 30 1018.2
20260509233854 22 234 4.8 11.3 0.00 0.00 0.00 31 1018.2
20260509233351 21 282 9.7 11.3 0.00 0.00 0.00 31 1018.5
20260509232846 21 79 8.0 8.0 0.00 0.00 0.00 30 1018.3
20260509232345 21 273 4.8 17.7 0.00 0.00 0.00 31 1018.5
20260509231840 21 90 0.0 6.4 0.00 0.00 0.00 30 1018.7
20260509231337 20 94 4.8 6.4 0.00 0.00 0.00 30 1018.3
20260509230835 20 353 9.7 11.3 0.00 0.00 0.00 30 1018.3
20260509230332 21 225 3.2 11.3 0.00 0.00 0.00 30 1018.7
20260509225827 21 347 4.8 8.0 0.00 0.00 0.00 30 1018.8
20260509225324 21 15 0.0 8.0 0.00 0.00 0.00 32 1018.8
20260509224821 21 180 0.0 12.9 0.00 0.00 0.00 30 1019.0
20260509224316 20 16 0.0 4.8 0.00 0.00 0.00 32 1019.0
20260509223813 21 282 14.5 14.5 0.00 0.00 0.00 32 1019.0
20260509223310 20 310 6.4 12.9 0.00 0.00 0.00 35 1019.1
20260509222807 21 270 4.8 14.5 0.00 0.00 0.00 33 1018.9
20260509222306 21 234 0.0 8.0 0.00 0.00 0.00 35 1019.0
20260509221758 20 141 4.8 12.9 0.00 0.00 0.00 32 1019.0
20260509221256 20 46 6.4 8.0 0.00 0.00 0.00 31 1019.0
20260509220751 20 319 0.0 9.7 0.00 0.00 0.00 34 1019.1
20260509220248 20 343 6.4 11.3 0.00 0.00 0.00 33 1019.1
20260509215743 20 225 4.8 12.9 0.00 0.00 0.00 32 1019.1
20260509215240 20 267 6.4 11.3 0.00 0.00 0.00 33 1019.3
20260509214737 20 323 17.7 19.3 0.00 0.00 0.00 34 1019.5
20260509214234 20 243 4.8 11.3 0.00 0.00 0.00 35 1019.2
20260509213731 20 338 4.8 14.5 0.00 0.00 0.00 34 1019.7
20260509213226 20 357 4.8 11.3 0.00 0.00 0.00 34 1019.5
20260509212724 20 347 0.0 6.4 0.00 0.00 0.00 33 1019.6
20260509212221 20 96 3.2 12.9 0.00 0.00 0.00 34 1019.3
20260509211717 20 346 6.4 9.7 0.00 0.00 0.00 34 1019.8
20260509211214 20 306 0.0 4.8 0.00 0.00 0.00 34 1019.6
20260509210710 20 282 3.2 6.4 0.00 0.00 0.00 36 1019.7
20260509210208 20 262 6.4 11.3 0.00 0.00 0.00 36 1019.7
20260509205707 19 252 6.4 12.9 0.00 0.00 0.00 35 1019.5
20260509205207 20 337 4.8 8.0 0.00 0.00 0.00 34 1019.7
20260509204703 19 198 0.0 11.3 0.00 0.00 0.00 35 1019.6
20260509204159 20 314 8.0 11.3 0.00 0.00 0.00 36 1019.7
20260509203655 18 15 9.7 19.3 0.00 0.00 0.00 34 1019.9
20260509203154 18 190 0.0 8.0 0.00 0.00 0.00 34 1019.9
20260509202649 18 292 6.4 19.3 0.00 0.00 0.00 34 1020.0
20260509202144 19 17 9.7 12.9 0.00 0.00 0.00 35 1019.9
20260509201640 19 326 4.8 8.0 0.00 0.00 0.00 35 1019.9
20260509201137 18 258 4.8 12.9 0.00 0.00 0.00 36 1020.1
20260509200633 19 301 8.0 8.0 0.00 0.00 0.00 37 1020.0
20260509200129 19 237 3.2 8.0 0.00 0.00 0.00 39 1019.9
20260509195625 18 60 4.8 17.7 0.00 0.00 0.00 35 1020.0
20260509195120 18 318 4.8 16.1 0.00 0.00 0.00 36 1019.9
20260509194619 18 6 1.6 14.5 0.00 0.00 0.00 35 1020.1
20260509194117 17 203 0.0 17.7 0.00 0.00 0.00 36 1020.1
20260509193612 18 261 0.0 8.0 0.00 0.00 0.00 36 1019.9
20260509193108 18 338 4.8 6.4 0.00 0.00 0.00 36 1020.2
20260509192605 17 180 0.0 11.3 0.00 0.00 0.00 36 1020.2
20260509192100 17 61 8.0 11.3 0.00 0.00 0.00 36 1020.3
20260509191555 17 43 6.4 9.7 0.00 0.00 0.00 37 1020.5
20260509191051 17 290 3.2 8.0 0.00 0.00 0.00 39 1020.3
20260509190548 17 330 8.0 9.7 0.00 0.00 0.00 39 1020.3
20260509190046 17 300 3.2 8.0 0.00 0.00 0.00 37 1020.5
20260509185543 17 268 9.7 9.7 0.00 0.00 0.00 37 1020.7
20260509185039 17 288 3.2 11.3 0.00 0.00 0.00 38 1020.3
20260509184538 17 48 3.2 6.4 0.00 0.00 0.00 36 1020.3
20260509184033 17 180 1.6 6.4 0.00 0.00 0.00 35 1020.6
20260509183529 16 207 4.8 8.0 0.00 0.00 0.00 36 1020.6
20260509183025 16 165 0.0 9.7 0.00 0.00 0.00 37 1020.6
20260509182521 16 315 6.4 12.9 0.00 0.00 0.00 38 1020.6
20260509182019 16 308 8.0 8.0 0.00 0.00 0.00 39 1020.5
20260509181517 16 274 8.0 11.3 0.00 0.00 0.00 39 1020.5
20260509181014 17 296 4.8 4.8 0.00 0.00 0.00 37 1020.6
20260509180509 16 207 4.8 6.4 0.00 0.00 0.00 39 1020.6
20260509180008 17 201 3.2 4.8 0.00 0.00 0.00 38 1020.7
20260509175502 16 245 3.2 4.8 0.00 0.00 0.00 40 1020.7
20260509174959 15 340 4.8 9.7 0.00 0.00 0.00 39 1020.9
20260509174456 16 17 4.8 4.8 0.00 0.00 0.00 38 1020.8
20260509173950 15 226 9.7 11.3 0.00 0.00 0.00 39 1021.0
20260509173445 15 0 4.8 11.3 0.00 0.00 0.00 39 1021.0
20260509172942 15 341 3.2 6.4 0.00 0.00 0.00 41 1020.7
20260509172439 15 285 4.8 11.3 0.00 0.00 0.00 39 1020.9
20260509171934 15 307 8.0 8.0 0.00 0.00 0.00 42 1020.8
20260509171431 15 274 3.2 9.7 0.00 0.00 0.00 39 1020.7
20260509170927 15 337 4.8 9.7 0.00 0.00 0.00 39 1021.0
20260509170423 15 270 0.0 8.0 0.00 0.00 0.00 39 1020.9
20260509165918 14 293 4.8 6.4 0.00 0.00 0.00 43 1020.9
20260509165413 15 300 3.2 9.7 0.00 0.00 0.00 40 1020.9
20260509164908 13 311 4.8 8.0 0.00 0.00 0.00 40 1020.6
20260509164405 14 322 4.8 8.0 0.00 0.00 0.00 42 1021.0
20260509163901 14 90 0.0 3.2 0.00 0.00 0.00 40 1020.9
20260509163358 14 50 6.4 6.4 0.00 0.00 0.00 40 1021.0
20260509162857 13 291 4.8 6.4 0.00 0.00 0.00 40 1020.9
20260509162356 13 90 0.0 8.0 0.00 0.00 0.00 42 1020.8
20260509161852 13 66 3.2 4.8 0.00 0.00 0.00 43 1021.0
20260509161348 13 128 3.2 8.0 0.00 0.00 0.00 43 1021.2
20260509160844 12 99 3.2 6.4 0.00 0.00 0.00 46 1020.9
20260509160340 12 121 3.2 4.8 0.00 0.00 0.00 45 1021.1
20260509155835 12 57 3.2 6.4 0.00 0.00 0.00 47 1021.2
20260509155332 12 33 3.2 4.8 0.00 0.00 0.00 49 1021.0
20260509154828 11 12 1.6 4.8 0.00 0.00 0.00 52 1021.1
20260509154325 12 63 3.2 3.2 0.00 0.00 0.00 51 1020.8
20260509153822 11 41 3.2 4.8 0.00 0.00 0.00 52 1021.1
20260509153319 11 327 3.2 3.2 0.00 0.00 0.00 51 1021.1
20260509152815 12 343 4.8 6.4 0.00 0.00 0.00 50 1021.1
20260509152311 11 294 0.0 6.4 0.00 0.00 0.00 54 1020.8
20260509151809 11 278 0.0 4.8 0.00 0.00 0.00 56 1021.0
20260509151305 11 357 4.8 4.8 0.00 0.00 0.00 56 1020.9
20260509150804 11 29 1.6 4.8 0.00 0.00 0.00 56 1020.8
20260509150301 11 321 3.2 6.4 0.00 0.00 0.00 59 1020.9
20260509145758 10 109 3.2 4.8 0.00 0.00 0.00 58 1020.7
20260509145258 10 45 3.2 4.8 0.00 0.00 0.00 62 1020.8
20260509144754 9 300 0.0 4.8 0.00 0.00 0.00 62 1020.8
20260509144251 9 90 1.6 4.8 0.00 0.00 0.00 62 1020.8
20260509143748 9 315 3.2 4.8 0.00 0.00 0.00 62 1020.8
20260509143246 10 102 4.8 4.8 0.00 0.00 0.00 59 1020.8
20260509142742 8 285 0.0 1.6 0.00 0.00 0.00 63 1020.9
20260509142238 8 0 4.8 4.8 0.00 0.00 0.00 63 1020.8
20260509141734 8 11 1.6 6.4 0.00 0.00 0.00 63 1020.9
20260509141231 8 113 4.8 6.4 0.00 0.00 0.00 63 1020.5
20260509140728 7 244 9.7 9.7 0.00 0.00 0.00 64 1020.9
20260509140225 7 68 4.8 8.0 0.00 0.00 0.00 65 1020.5
20260509135722 8 82 0.0 6.4 0.00 0.00 0.00 63 1020.3
20260509135220 7 274 4.8 8.0 0.00 0.00 0.00 65 1020.3
20260509134717 7 73 6.4 9.7 0.00 0.00 0.00 65 1020.3
20260509134214 7 81 3.2 4.8 0.00 0.00 0.00 63 1020.2
20260509133711 7 35 0.0 6.4 0.00 0.00 0.00 63 1020.3
20260509133208 7 106 3.2 6.4 0.00 0.00 0.00 62 1020.1
20260509132707 7 270 4.8 8.0 0.00 0.00 0.00 64 1019.9
20260509132205 6 164 4.8 8.0 0.00 0.00 0.00 66 1020.1
20260509131701 6 112 4.8 8.0 0.00 0.00 0.00 65 1019.7
20260509131158 5 106 0.0 4.8 0.00 0.00 0.00 67 1019.7
20260509130653 6 108 8.0 8.0 0.00 0.00 0.00 65 1019.8
20260509130150 6 103 6.4 6.4 0.00 0.00 0.00 64 1019.6
20260509125647 6 98 3.2 6.4 0.00 0.00 0.00 64 1019.5
20260509125143 6 117 12.9 14.5 0.00 0.00 0.00 65 1019.5
20260509124640 5 110 8.0 11.3 0.00 0.00 0.00 65 1019.5
20260509124137 5 129 9.7 12.9 0.00 0.00 0.00 67 1019.3
20260509123635 5 110 6.4 8.0 0.00 0.00 0.00 67 1019.3
20260509123132 5 127 8.0 9.7 0.00 0.00 0.00 65 1019.1
20260509122627 5 74 3.2 8.0 0.00 0.00 0.00 64 1018.8
20260509122124 5 117 6.4 8.0 0.00 0.00 0.00 67 1019.0
20260509121621 5 118 4.8 8.0 0.00 0.00 0.00 68 1018.9
20260509121119 5 142 3.2 3.2 0.00 0.00 0.00 67 1018.8
20260509120617 5 83 4.8 4.8 0.00 0.00 0.00 68 1018.7
20260509120115 5 110 4.8 4.8 0.00 0.00 0.00 67 1018.9
20260509115612 5 105 1.6 4.8 0.00 0.00 0.00 67 1018.6
20260509115109 5 115 8.0 9.7 0.00 0.00 0.00 67 1018.7
20260509114607 5 106 3.2 6.4 0.00 0.00 0.00 67 1018.7
20260509114106 5 95 3.2 3.2 0.00 0.00 0.00 66 1018.9
20260509113604 5 120 0.0 3.2 0.00 0.00 0.00 66 1018.7
20260509113101 5 107 0.0 6.4 0.00 0.00 0.00 65 1018.6
20260509112557 6 151 3.2 3.2 0.00 0.00 0.00 63 1018.7
20260509112054 6 286 0.0 0.0 0.00 0.00 0.00 62 1018.6
20260509111552 6 74 0.0 6.4 0.00 0.00 0.00 61 1018.5
20260509111048 6 90 0.0 8.0 0.00 0.00 0.00 61 1018.5
20260509110545 6 85 6.4 8.0 0.00 0.00 0.00 61 1018.6
20260509110042 6 103 4.8 6.4 0.00 0.00 0.00 61 1018.7
20260509105541 6 144 3.2 4.8 0.00 0.00 0.00 59 1018.6
20260509105038 6 141 4.8 4.8 0.00 0.00 0.00 62 1018.5
20260509104535 5 130 4.8 4.8 0.00 0.00 0.00 62 1018.6
20260509104032 5 114 4.8 4.8 0.00 0.00 0.00 62 1018.6
20260509103529 6 117 3.2 4.8 0.00 0.00 0.00 62 1018.5
20260509103028 6 106 6.4 6.4 0.00 0.00 0.00 60 1018.3
20260509102524 6 111 4.8 4.8 0.00 0.00 0.00 58 1018.5
20260509102021 6 132 3.2 4.8 0.00 0.00 0.00 60 1018.5
20260509101517 7 135 3.2 3.2 0.00 0.00 0.00 58 1018.5
20260509101015 7 124 3.2 6.4 0.00 0.00 0.00 57 1018.3
20260509100512 8 124 4.8 6.4 0.00 0.00 0.00 53 1018.5
20260509100009 7 63 3.2 4.8 0.00 0.00 0.00 55 1018.2
20260509095505 7 59 4.8 11.3 0.00 0.00 0.00 55 1018.0
20260509095003 7 105 0.0 4.8 0.00 0.00 0.00 57 1018.1
20260509094459 7 65 4.8 8.0 0.00 0.00 0.00 55 1018.1
20260509093956 8 52 8.0 12.9 0.00 0.00 0.00 53 1018.0
20260509093454 7 57 3.2 6.4 0.00 0.00 0.00 54 1018.0
20260509092951 9 94 3.2 4.8 0.00 0.00 0.00 49 1018.0
20260509092449 10 257 4.8 12.9 0.00 0.00 0.00 46 1017.9
20260509091948 7 99 3.2 8.0 0.00 0.00 0.00 54 1018.0
20260509091444 7 109 8.0 8.0 0.00 0.00 0.00 53 1018.0
20260509090941 7 103 4.8 9.7 0.00 0.00 0.00 54 1018.0
20260509090439 7 106 3.2 4.8 0.00 0.00 0.00 57 1018.0
20260509085936 7 117 4.8 6.4 0.00 0.00 0.00 55 1017.9
20260509085433 7 99 6.4 8.0 0.00 0.00 0.00 53 1017.8
20260509084929 8 97 6.4 8.0 0.00 0.00 0.00 51 1017.8
20260509084426 8 84 4.8 9.7 0.00 0.00 0.00 51 1018.1
20260509083924 8 110 8.0 9.7 0.00 0.00 0.00 52 1017.8
20260509083421 7 120 8.0 12.9 0.00 0.00 0.00 52 1017.8
20260509082917 7 107 6.4 8.0 0.00 0.00 0.00 53 1017.8
20260509082415 8 105 6.4 6.4 0.00 0.00 0.00 52 1017.7
20260509081911 8 123 4.8 6.4 0.00 0.00 0.00 51 1017.7
20260509081409 8 127 4.8 4.8 0.00 0.00 0.00 50 1017.8
20260509080906 8 116 4.8 6.4 0.00 0.00 0.00 49 1017.8
20260509080404 8 107 6.4 6.4 0.00 0.00 0.00 49 1017.7
20260509075902 8 138 4.8 8.0 0.00 0.00 0.00 51 1017.8
20260509075359 8 107 4.8 6.4 0.00 0.00 0.00 49 1017.7
20260509074856 8 71 3.2 6.4 0.00 0.00 0.00 50 1017.4
20260509074354 8 105 4.8 4.8 0.00 0.00 0.00 50 1017.6
20260509073850 8 113 3.2 4.8 0.00 0.00 0.00 49 1017.7
20260509073346 10 138 4.8 4.8 0.00 0.00 0.00 46 1017.5
20260509072843 9 111 4.8 6.4 0.00 0.00 0.00 46 1017.6
20260509072339 9 96 4.8 6.4 0.00 0.00 0.00 47 1017.5
20260509071836 10 107 4.8 4.8 0.00 0.00 0.00 45 1017.4
20260509071333 10 112 3.2 4.8 0.00 0.00 0.00 44 1017.4
20260509070830 11 117 4.8 4.8 0.00 0.00 0.00 42 1017.4
20260509070327 11 143 3.2 3.2 0.00 0.00 0.00 41 1017.4
20260509065823 11 101 3.2 4.8 0.00 0.00 0.00 41 1017.5
20260509065319 12 94 4.8 4.8 0.00 0.00 0.00 39 1017.2
20260509064815 12 188 0.0 4.8 0.00 0.00 0.00 38 1017.2
20260509064313 12 195 1.6 4.8 0.00 0.00 0.00 38 1017.2
20260509063811 12 180 0.0 4.8 0.00 0.00 0.00 38 1017.0
20260509063307 13 295 3.2 6.4 0.00 0.00 0.00 37 1017.0
20260509062804 13 214 4.8 6.4 0.00 0.00 0.00 36 1016.9
20260509062301 13 248 9.7 12.9 0.00 0.00 0.00 35 1017.0
20260509061758 13 233 4.8 8.0 0.00 0.00 0.00 36 1016.9
20260509061256 13 273 4.8 14.5 0.00 0.00 0.00 35 1017.0
20260509060753 13 262 3.2 14.5 0.00 0.00 0.00 35 1017.1
20260509060250 12 172 0.0 4.8 0.00 0.00 0.00 39 1017.1
20260509055745 13 250 3.2 4.8 0.00 0.00 0.00 37 1016.9
20260509055241 13 235 6.4 8.0 0.00 0.00 0.00 37 1017.1
20260509054738 13 280 3.2 8.0 0.00 0.00 0.00 37 1016.7
20260509054235 13 214 4.8 6.4 0.00 0.00 0.00 36 1016.8
20260509053733 14 284 6.4 11.3 0.00 0.00 0.00 35 1016.8
20260509053230 14 246 6.4 22.5 0.00 0.00 0.00 34 1016.7
20260509052728 13 243 6.4 14.5 0.00 0.00 0.00 36 1016.8
20260509052225 13 276 0.0 12.9 0.00 0.00 0.00 37 1016.7
20260509051723 13 248 4.8 4.8 0.00 0.00 0.00 38 1016.7
20260509051221 13 297 0.0 3.2 0.00 0.00 0.00 40 1016.6
20260509050717 13 200 1.6 8.0 0.00 0.00 0.00 38 1016.7
20260509050213 14 244 4.8 8.0 0.00 0.00 0.00 35 1016.7
20260509045711 14 319 6.4 6.4 0.00 0.00 0.00 35 1016.8
20260509045208 15 284 4.8 6.4 0.00 0.00 0.00 35 1016.7
20260509044705 15 275 3.2 9.7 0.00 0.00 0.00 34 1016.6
20260509044203 15 302 4.8 4.8 0.00 0.00 0.00 33 1016.7
20260509043659 15 277 4.8 6.4 0.00 0.00 0.00 33 1016.5
20260509043155 15 249 6.4 11.3 0.00 0.00 0.00 33 1016.5
20260509042651 15 275 6.4 14.5 0.00 0.00 0.00 32 1016.5
20260509042147 15 243 8.0 9.7 0.00 0.00 0.00 32 1016.2
20260509041644 15 276 8.0 8.0 0.00 0.00 0.00 32 1016.2
20260509041141 16 263 6.4 16.1 0.00 0.00 0.00 31 1016.2
20260509040640 15 210 3.2 8.0 0.00 0.00 0.00 32 1016.0
20260509040136 16 236 6.4 8.0 0.00 0.00 0.00 31 1016.4
20260509035633 16 283 0.0 8.0 0.00 0.00 0.00 31 1016.2
20260509035130 16 278 1.6 11.3 0.00 0.00 0.00 30 1016.0
20260509034628 16 248 6.4 20.9 0.00 0.00 0.00 30 1016.0
20260509034125 16 289 12.9 25.7 0.00 0.00 0.00 30 1015.8
20260509033621 16 261 8.0 22.5 0.00 0.00 0.00 29 1015.8
20260509033118 16 243 8.0 16.1 0.00 0.00 0.00 30 1015.6
20260509032616 16 233 14.5 14.5 0.00 0.00 0.00 31 1015.7
20260509032113 16 245 3.2 14.5 0.00 0.00 0.00 31 1015.2
20260509031611 16 241 8.0 20.9 0.00 0.00 0.00 30 1015.5
20260509031108 16 160 1.6 11.3 0.00 0.00 0.00 34 1015.4
20260509030606 16 270 4.8 9.7 0.00 0.00 0.00 34 1015.4
20260509025558 16 252 4.8 16.1 0.00 0.00 0.00 32 1014.9
20260509025054 16 295 11.3 20.9 0.00 0.00 0.00 33 1014.9
20260509024550 17 261 8.0 16.1 0.00 0.00 0.00 34 1014.7
20260509024046 17 222 17.7 25.7 0.00 0.00 0.00 33 1014.4
20260509023544 17 230 8.0 17.7 0.00 0.00 0.00 34 1014.4
20260509023041 17 247 9.7 19.3 0.00 0.00 0.00 34 1014.4
20260509022537 17 245 19.3 27.4 0.00 0.00 0.00 34 1014.4
20260509022035 17 210 9.7 20.9 0.00 0.00 0.00 33 1014.1
20260509021532 18 250 14.5 24.1 0.00 0.00 0.00 32 1014.1
20260509021029 18 260 9.7 19.3 0.00 0.00 0.00 31 1014.1
20260509020528 19 274 9.7 17.7 0.00 0.00 0.00 30 1014.0
20260509020024 19 268 8.0 17.7 0.00 0.00 0.00 28 1013.9
20260509015523 19 270 14.5 19.3 0.00 0.00 0.00 27 1013.8
20260509015020 19 257 9.7 22.5 0.00 0.00 0.00 26 1013.8
20260509014516 19 265 6.4 16.1 0.00 0.00 0.00 27 1013.9
20260509014012 19 278 9.7 9.7 0.00 0.00 0.00 27 1013.7
20260509013510 18 243 6.4 14.5 0.00 0.00 0.00 26 1013.8
20260509013005 18 244 11.3 22.5 0.00 0.00 0.00 26 1013.9
20260509012502 18 229 9.7 24.1 0.00 0.00 0.00 25 1013.8
20260509011959 18 254 17.7 38.6 0.00 0.00 0.00 25 1013.7
20260509011457 18 223 14.5 24.1 0.00 0.00 0.00 24 1013.7
20260509010954 18 232 8.0 19.3 0.00 0.00 0.00 26 1013.7
20260509010452 18 270 4.8 12.9 0.00 0.00 0.00 25 1013.7
20260509005948 18 261 17.7 20.9 0.00 0.00 0.00 24 1013.8
20260509005446 18 238 11.3 17.7 0.00 0.00 0.00 24 1013.6
20260509004946 18 250 14.5 20.9 0.00 0.00 0.00 25 1013.5
20260509004443 18 245 3.2 14.5 0.00 0.00 0.00 26 1013.5
20260509003941 18 277 6.4 16.1 0.00 0.00 0.00 25 1013.6
20260509003439 18 259 9.7 22.5 0.00 0.00 0.00 25 1013.6
20260509002935 18 203 4.8 9.7 0.00 0.00 0.00 26 1013.5
20260509002433 18 223 6.4 14.5 0.00 0.00 0.00 25 1013.5